Tracking 19247 objects as of 22-Sep-2018
HD Live streaming from Space Station
objects crossing your sky now

TANSUO 1

Track TANSUO 1 now!
10-day predictions
TANSUO 1 is classified as:


NORAD ID: 28220
Int'l Code: 2004-012A
Perigee: 567.6 km
Apogee: 582.7 km
Inclination: 97.8 °
Period: 96.0 minutes
Semi major axis: 6946 km
RCS: 1.6951 m2 (large)
Launch date: April 18, 2004
Source: People's Republic of China (PRC)
Launch site: Xichang Space Center, China (XSC)
aabbcc
Your satellite tracking list
Your tracking list is empty




NASA's NSSDC Master Catalog

Two Line Element Set (TLE):
1 28220U 04012A   18264.89723284 +.00000854 +00000-0 +74189-4 0  9995
2 28220 097.7562 222.3710 0010893 057.1610 303.0661 14.99632189785483
Source of the keplerian elements: AFSPC